VK2RZ Weather Reports


Display with metric or nautical units.
time (UTC)temp
F
wind
direction
speed
MPH
gust
MPH
rain 1hr
in
rain 24hr
in
rain mn
in
humidity
%
barometer
mb
20260502163013 66 0 0.0 0.0 0.00 0.01 0.00 8 1022.2
20260502162013 66 5 3.0 3.0 0.00 0.02 0.00 7 1022.5
20260502161013 66 358 4.0 4.0 0.00 0.02 0.00 7 1022.5
20260502152013 66 0 0.0 1.0 0.00 0.05 0.00 8 1022.7
20260502151013 66 345 1.0 1.0 0.00 0.05 0.00 8 1022.7
20260502123010 69 0 0.0 1.0 0.00 0.05 0.05 7 1023.5
20260502122010 69 22 4.0 4.0 0.00 0.05 0.05 7 1023.8
20260502121010 69 37 4.0 5.0 0.00 0.05 0.05 7 1023.8
20260502115010 69 39 2.0 4.0 0.00 0.05 0.05 7 1023.9
20260502114010 69 12 2.0 2.0 0.00 0.05 0.05 7 1023.8
20260502113010 69 63 6.0 6.0 0.00 0.05 0.05 7 1023.7
20260502112010 69 0 0.0 0.0 0.00 0.05 0.05 7 1023.9
20260502111010 69 37 2.0 2.0 0.00 0.05 0.05 7 1023.9
20260502110009 69 37 3.0 4.0 0.00 0.05 0.05 7 1023.8
20260502105009 69 26 4.0 4.0 0.00 0.05 0.05 7 1023.9
20260502104009 69 20 1.0 1.0 0.00 0.05 0.05 7 1024.0
20260502103009 69 0 0.0 0.0 0.00 0.05 0.05 7 1023.8
20260502102009 69 47 2.0 2.0 0.00 0.05 0.05 7 1023.8
20260502101009 69 38 8.0 9.0 0.00 0.05 0.05 7 1023.5
20260502091008 70 86 2.0 4.0 0.00 0.05 0.05 7 1023.4
20260502071007 69 25 1.0 1.0 0.00 0.05 0.05 7 1023.1
20260502070007 70 52 5.0 9.0 0.00 0.05 0.05 7 1023.2
20260502065007 70 25 9.0 9.0 0.00 0.05 0.05 7 1023.1
20260502064007 70 62 4.0 4.0 0.00 0.05 0.05 7 1023.1
20260502063007 70 81 4.0 4.0 0.00 0.05 0.05 7 1023.0
20260502062007 70 40 5.0 6.0 0.00 0.05 0.05 7 1023.0
20260502061007 70 75 9.0 9.0 0.00 0.05 0.05 7 1023.1
20260502060007 70 48 2.0 2.0 0.00 0.05 0.05 7 1023.0
20260502055007 70 20 6.0 6.0 0.00 0.05 0.05 7 1023.1
20260502054007 70 69 4.0 6.0 0.00 0.05 0.05 7 1023.0
20260502053007 70 17 6.0 6.0 0.00 0.05 0.05 7 1023.0
20260502052007 71 70 3.0 4.0 0.00 0.05 0.05 7 1023.1
20260502051007 72 67 4.0 4.0 0.00 0.05 0.05 7 1023.1
20260502050007 71 61 4.0 5.0 0.00 0.05 0.05 7 1023.0
20260502045007 71 39 3.0 4.0 0.00 0.05 0.05 7 1023.0
20260502044007 72 36 2.0 2.0 0.00 0.05 0.05 7 1023.1
20260502043007 72 65 4.0 7.0 0.00 0.05 0.05 7 1023.1
20260502042007 72 79 8.0 9.0 0.00 0.05 0.05 7 1023.2
20260502041007 72 39 9.0 9.0 0.00 0.05 0.05 7 1023.3
20260502040007 71 35 7.0 9.0 0.00 0.05 0.05 7 1023.2
20260502035007 71 74 4.0 4.0 0.00 0.05 0.05 7 1023.1
20260502034007 72 73 8.0 10.0 0.00 0.05 0.05 7 1023.2
20260502033007 73 47 7.0 8.0 0.00 0.05 0.05 7 1023.2
20260502032007 72 68 4.0 8.0 0.00 0.05 0.05 7 1023.4
20260502031007 73 67 7.0 9.0 0.00 0.05 0.05 7 1023.4
20260502030007 73 63 11.0 13.0 0.00 0.05 0.05 7 1023.5
20260502025007 73 349 4.0 4.0 0.00 0.05 0.05 7 1023.6
20260502024007 72 58 6.0 6.0 0.00 0.05 0.05 7 1023.9
20260502023007 72 26 3.0 3.0 0.00 0.05 0.05 7 1024.1
20260502022007 73 27 9.0 10.0 0.00 0.05 0.05 7 1024.3
20260502021007 73 76 3.0 4.0 0.00 0.05 0.05 7 1024.5
20260502020007 72 43 9.0 12.0 0.00 0.05 0.05 7 1024.7
20260502015007 72 31 8.0 8.0 0.00 0.05 0.05 7 1025.0
20260502014007 71 18 6.0 6.0 0.00 0.05 0.05 7 1025.1
20260502013007 70 47 4.0 4.0 0.00 0.05 0.05 7 1025.2
20260502012007 70 43 2.0 3.0 0.00 0.05 0.05 7 1025.4
20260502011007 70 358 2.0 4.0 0.00 0.05 0.05 7 1025.5
20260502010007 70 77 7.0 10.0 0.00 0.05 0.05 7 1025.7
20260502005007 72 15 8.0 8.0 0.00 0.05 0.05 7 1025.6
20260502004007 72 64 3.0 4.0 0.00 0.05 0.05 7 1025.6
20260502003007 71 39 2.0 2.0 0.00 0.05 0.05 7 1025.6
20260502002007 71 35 3.0 3.0 0.00 0.05 0.05 7 1025.8
20260502001007 70 38 6.0 6.0 0.00 0.05 0.05 8 1025.9
20260502000007 70 46 1.0 1.0 0.00 0.05 0.05 8 1025.9
20260501235007 70 82 2.0 2.0 0.00 0.05 0.05 8 1025.9
20260501234007 70 33 5.0 5.0 0.00 0.05 0.05 8 1026.0
20260501233007 69 6 1.0 1.0 0.00 0.05 0.05 8 1026.0
20260501232007 69 0 0.0 0.0 0.00 0.05 0.05 8 1026.0
20260501231007 69 0 0.0 0.0 0.00 0.05 0.05 8 1026.0
20260501230007 68 0 0.0 0.0 0.00 0.05 0.05 8 1026.0
20260501225007 67 0 0.0 0.0 0.00 0.05 0.05 8 1026.0
20260501224007 66 0 0.0 0.0 0.00 0.05 0.05 8 1026.1
20260501223007 65 0 0.0 0.0 0.00 0.05 0.05 8 1026.4
20260501222007 65 0 0.0 0.0 0.00 0.05 0.05 8 1026.2
20260501221007 65 0 0.0 0.0 0.00 0.05 0.05 8 1026.2
20260501220007 64 0 0.0 0.0 0.00 0.05 0.05 8 1026.1
20260501215007 64 0 0.0 0.0 0.00 0.05 0.05 8 1026.0
20260501214007 64 0 0.0 0.0 0.00 0.05 0.05 8 1025.9
20260501213007 65 0 0.0 0.0 0.00 0.05 0.05 8 1025.9
20260501212007 64 0 0.0 0.0 0.00 0.05 0.05 8 1026.0
20260501211007 64 0 0.0 0.0 0.00 0.05 0.05 8 1025.9
20260501210006 64 0 0.0 0.0 0.00 0.05 0.05 8 1025.9
20260501205006 64 0 0.0 0.0 0.00 0.05 0.05 9 1025.8
20260501204006 63 0 0.0 0.0 0.00 0.05 0.05 9 1025.8
20260501203006 63 0 0.0 0.0 0.00 0.05 0.05 9 1025.8
20260501202006 63 0 0.0 0.0 0.00 0.05 0.05 9 1025.8
20260501201006 63 0 0.0 0.0 0.00 0.05 0.05 9 1025.7
20260501200006 63 217 2.0 2.0 0.00 0.05 0.05 9 1025.7
20260501195006 63 0 0.0 0.0 0.00 0.05 0.05 9 1025.7
20260501194006 63 0 0.0 0.0 0.00 0.05 0.05 9 1025.6
20260501193006 63 0 0.0 0.0 0.00 0.05 0.05 9 1025.7
20260501192006 62 0 0.0 0.0 0.00 0.05 0.05 9 1025.7
20260501191006 62 0 0.0 0.0 0.00 0.05 0.05 9 1025.7
20260501190005 62 0 0.0 0.0 0.00 0.05 0.05 9 1025.5
20260501185005 62 0 0.0 0.0 0.00 0.05 0.05 9 1025.4
20260501184005 63 0 0.0 0.0 0.00 0.05 0.05 9 1025.4
20260501183005 63 0 0.0 0.0 0.00 0.05 0.05 9 1025.4
20260501182005 63 0 0.0 0.0 0.00 0.05 0.05 9 1025.3
20260501181005 63 0 0.0 0.0 0.00 0.05 0.05 9 1025.3
20260501180004 63 0 0.0 0.0 0.00 0.05 0.05 9 1025.2
20260501175004 63 214 3.0 3.0 0.00 0.05 0.05 9 1025.2
20260501174004 63 0 0.0 0.0 0.01 0.05 0.05 9 1025.4
20260501173004 64 231 1.0 1.0 0.01 0.05 0.05 9 1025.4
20260501172004 64 343 1.0 1.0 0.02 0.05 0.05 9 1025.6
20260501171004 63 0 0.0 0.0 0.02 0.05 0.05 9 1025.7
20260501170004 63 0 0.0 0.0 0.02 0.04 0.04 9 1025.6
20260501165004 63 0 0.0 0.0 0.03 0.03 0.04 9 1025.7
20260501164004 63 0 0.0 0.0 0.03 0.03 0.03 9 1025.8